カタログに戻る

COSMOS 2363

GLONASS

運用中ナビゲーションMEO
NORAD 25594·PAYLOAD·🇷🇺 Russia

打ち上げ Dec 30, 1998 から Baikonur Cosmodrome

Loading…

次のパス (今後24時間)

TLE

最新Source: Space-Track

元期: Sep 14, 2026, 02:48 UTC

1 25594U 98077B   26257.11708360 -.00000030  00000-0  00000-0 0  9998
2 25594  64.3896  56.9585 0027424  46.6663 130.3008  2.13103645215571

AllMySatでCOSMOS 2363をリアルタイム追跡

Download on the App Store